Wind_Speed
6 6 6 6 5 4 3 4 6 7 7 7 7 7 7 7 6 5 3 4 3 3 3 3 4 5 7 6 4 5 6 9 6 2 2 5 8 9 10 9 9 10 16 16 15
7 8 8 8 8 7 6 5 6 7 8 8 8 7 7 5 4 4 4 4 4 5 5 6 6 7 6 5 5 3 9 7 4 1 5 9 9 10 8 9 9 11 13 14 16
8 9 10 10 10 9 9 8 9 8 8 7 6 7 6 5 6 7 8 8 7 7 8 7 7 7 5 5 5 7 7 7 4 2 3 5 9 9 9 12 13 13 15 17 19
9 10 11 12 12 11 11 10 10 9 8 7 6 6 6 6 4 8 9 9 9 8 8 7 7 6 3 5 5 6 7 6 2 2 6 8 12 15 14 14 14 15 17 19 22
9 11 12 12 11 11 11 11 11 10 10 10 10 10 9 8 12 10 11 11 11 10 9 7 6 4 4 5 7 8 6 2 6 11 14 14 13 13 13 10 11 15 18 22 25
9 10 11 11 10 11 11 11 10 10 12 11 12 13 13 3 11 12 12 11 10 8 7 7 5 4 4 4 2 4 5 5 5 9 13 16 17 12 13 14 18 22 24 27 28
9 10 10 10 10 10 11 11 12 13 13 13 11 9 7 10 10 11 9 7 6 6 6 5 4 3 4 4 4 2 3 9 6 11 14 18 15 14 16 18 22 25 27 27 26
9 9 10 10 9 9 10 11 13 13 14 12 11 12 8 11 9 10 6 6 6 6 6 6 4 3 3 3 2 4 4 10 13 14 18 22 17 14 19 25 26 28 28 26 24
9 10 10 10 9 9 9 10 10 10 12 13 14 11 11 10 10 7 8 7 6 6 6 4 4 1 3 2 2 4 10 13 15 22 23 22 18 21 22 24 25 25 24 23 23
9 10 9 9 8 9 9 9 9 11 11 10 10 10 10 8 7 7 7 6 5 4 5 4 2 1 1 3 4 13 17 18 21 27 26 21 22 21 20 22 21 21 20 22 23
10 9 9 9 9 9 9 7 10 8 4 11 13 12 8 8 8 9 7 5 6 5 3 2 1 3 5 9 12 17 19 18 26 21 29 31 21 14 15 15 17 19 22 29 33
9 9 9 9 9 10 10 10 12 14 15 14 10 8 8 5 8 8 8 8 8 6 3 2 5 8 10 11 15 19 18 21 17 31 30 32 20 15 14 16 15 25 34 39 48
9 9 9 9 9 11 13 15 14 12 14 13 9 6 5 8 7 6 8 7 8 7 5 6 8 10 11 15 17 24 20 30 32 34 27 15 15 17 14 11 16 32 37 46 52
9 9 9 9 10 13 14 16 14 6 5 8 4 9 7 3 10 9 11 8 9 11 9 6 12 11 11 17 24 18 28 32 35 19 4 8 5 6 14 16 23 29 42 51 41
10 9 9 10 11 12 14 14 5 2 3 3 8 7 10 8 6 10 8 9 10 10 12 10 9 10 18 22 31 21 30 35 18 9 7 8 6 7 12 23 31 42 52 46 44
11 10 8 9 10 11 13 8 2 1 3 3 6 7 8 9 8 7 12 13 9 10 15 10 10 11 17 22 25 30 33 19 12 6 1 6 5 6 18 34 39 52 49 46 47
12 11 9 9 10 9 9 6 1 2 5 4 5 6 5 7 8 7 5 10 15 11 18 11 11 12 12 25 16 24 34 8 4 4 4 3 13 8 12 28 47 55 45 46 48
11 11 10 10 9 8 7 3 1 5 4 5 6 6 6 6 9 11 10 13 17 18 12 11 7 16 17 25 23 23 28 8 5 6 11 17 2 7 14 31 48 41 45 48 52
11 11 11 11 9 7 5 2 4 8 7 7 5 4 4 7 6 8 11 12 16 18 13 8 7 14 16 21 18 17 23 13 9 9 6 6 9 16 22 42 49 45 48 51 53
11 11 12 11 9 7 4 2 7 7 7 5 2 2 3 6 6 8 12 9 15 17 17 13 8 9 17 16 17 20 23 11 12 7 7 4 10 15 30 52 49 48 51 53 55
12 12 13 11 9 7 4 5 9 8 7 4 3 2 3 5 5 7 11 9 14 16 17 16 10 9 17 13 16 19 22 15 6 1 3 5 11 17 43 45 49 49 50 53 58
15 13 13 12 10 7 6 8 8 8 5 4 4 2 2 5 4 6 10 11 13 15 15 14 7 13 14 11 14 17 20 19 6 4 8 9 12 30 40 44 47 49 51 54 57
16 14 14 13 10 9 8 8 9 8 7 5 3 1 2 5 4 6 12 14 14 15 13 14 9 8 8 8 12 22 22 20 12 13 4 7 20 39 43 46 46 49 53 58 62
18 15 16 15 10 8 8 10 10 9 7 5 3 1 3 4 6 7 12 13 15 15 13 13 10 8 7 15 19 15 20 17 15 10 17 18 39 44 47 50 50 51 56 61 65
21 17 18 17 14 11 10 10 11 10 7 6 3 2 2 5 9 9 13 16 16 11 12 12 10 13 18 16 12 15 12 13 14 18 15 33 34 42 47 49 50 53 57 63 67
22 19 18 12 16 14 12 13 11 9 8 5 4 3 4 6 9 12 16 17 14 14 12 11 10 18 16 11 16 13 6 11 16 26 27 28 34 43 45 46 46 51 60 65 67
21 19 15 16 16 16 14 14 13 10 8 5 2 4 5 7 11 15 17 17 15 12 10 11 16 19 5 14 14 3 10 13 22 26 21 28 35 43 48 48 48 55 61 64 65
Wind_Direction
82 82 85 89 96 111 132 136 134 129 126 123 124 120 117 122 119 106 82 68 50 52 62 69 73 65 55 64 95 94 134 125 126 162 271 296 302 303 314 319 313 294 292 292 289
90 89 89 89 90 94 106 128 139 137 138 139 136 133 125 117 102 90 71 55 50 53 54 59 64 66 71 91 114 135 144 124 107 22 312 315 304 300 300 288 280 282 282 278 271
93 93 92 92 91 94 106 118 127 133 136 133 126 121 118 105 86 60 52 54 59 64 73 81 82 78 85 101 133 128 134 131 116 74 12 336 319 315 295 286 283 278 272 271 271
98 96 95 93 95 98 106 116 122 125 125 116 114 113 110 74 77 68 69 71 67 69 74 75 69 68 89 103 101 114 118 130 177 350 332 306 321 317 307 303 294 288 283 281 280
102 97 97 94 96 101 105 108 112 118 116 106 99 99 97 86 92 85 71 61 59 57 50 48 54 55 65 86 83 87 95 43 345 336 333 335 313 308 303 291 277 271 269 268 268
107 103 99 98 99 103 106 105 108 111 111 107 104 104 107 136 88 79 75 70 58 53 41 29 40 45 44 62 67 103 64 3 334 311 316 319 321 310 299 281 270 267 266 267 270
113 112 106 106 103 104 107 105 103 102 104 102 102 98 98 113 94 80 67 54 42 38 37 35 44 62 91 93 99 42 345 338 310 314 318 316 301 282 280 275 271 269 269 270 274
124 122 118 114 112 112 108 107 108 100 104 106 104 93 114 94 91 73 45 37 43 57 65 54 45 63 66 71 33 351 314 331 312 316 312 314 301 287 288 281 275 272 272 272 275
133 129 125 119 119 113 108 104 109 110 112 110 103 103 93 78 52 33 44 50 52 60 83 72 56 49 94 33 310 296 325 325 318 311 312 305 293 291 286 278 277 274 271 270 272
139 134 130 123 121 117 109 107 110 117 117 105 102 102 83 71 47 35 38 34 36 46 37 36 82 71 325 300 320 336 334 322 317 315 311 306 299 282 278 270 271 270 275 283 293
141 138 132 127 126 115 111 114 124 122 125 109 95 87 83 58 35 36 35 24 21 30 39 70 180 344 14 11 353 336 328 321 326 321 324 318 302 270 259 266 271 280 300 314 320
141 141 136 132 135 120 116 115 118 114 108 99 94 88 74 71 41 25 26 28 32 34 28 347 4 27 11 356 341 333 333 328 330 318 316 307 288 265 261 279 304 337 337 334 329
144 144 141 135 135 131 126 121 117 115 98 86 77 79 90 66 48 46 45 43 43 26 0 13 18 3 351 339 333 346 343 333 320 314 314 290 266 260 272 296 322 342 340 337 343
144 146 142 138 136 139 138 133 129 107 85 55 71 44 47 22 36 57 58 47 27 15 2 355 358 352 339 340 348 352 340 331 314 315 298 265 291 273 288 301 332 327 339 343 341
146 146 144 136 136 144 150 148 131 39 63 28 59 66 51 47 61 52 39 27 10 359 5 360 336 335 347 354 346 341 342 329 324 314 275 235 270 322 326 331 341 344 342 341 340
148 149 147 145 142 148 164 180 194 38 74 72 83 61 52 48 60 55 26 12 10 9 358 346 339 348 352 347 348 341 347 332 319 320 184 155 355 340 3 1 348 342 343 340 337
151 152 152 152 148 149 157 170 159 79 144 117 101 67 60 51 45 32 359 1 24 12 356 348 334 338 341 345 349 346 5 340 328 340 355 162 328 277 328 350 347 341 339 337 337
161 160 158 159 158 151 155 147 119 135 133 139 117 70 59 40 29 16 11 13 16 13 358 344 327 336 343 351 349 1 15 51 312 312 313 322 288 330 315 340 330 336 339 338 340
172 170 166 164 162 161 158 146 130 142 141 136 117 75 52 30 25 8 5 18 8 8 9 344 313 332 345 345 3 358 11 6 308 282 300 334 326 327 327 331 341 344 340 338 342
182 178 174 171 167 169 167 132 148 151 145 141 109 86 46 23 16 11 9 355 358 357 355 342 324 332 339 342 352 6 3 358 355 347 315 345 316 329 342 340 342 344 341 344 344
191 186 182 178 177 176 171 157 154 158 153 133 124 110 38 10 9 5 2 354 349 347 348 345 336 330 333 342 353 358 8 17 356 60 292 315 326 337 340 341 343 347 346 345 344
196 192 189 183 182 179 172 160 164 167 165 153 142 117 13 354 350 357 348 343 340 343 345 349 332 329 330 333 345 352 1 13 30 334 287 274 283 338 340 343 350 348 346 346 347
199 198 192 187 190 190 175 172 173 174 168 168 182 171 348 348 341 341 342 338 336 338 342 350 339 330 334 326 340 342 353 359 8 353 310 315 305 347 344 349 354 348 347 348 350
198 198 195 193 191 196 200 182 181 177 177 182 197 210 324 331 334 328 335 332 329 332 339 345 344 348 318 308 320 332 342 348 353 349 315 313 320 346 349 349 353 349 350 351 353
202 203 200 203 197 198 196 191 182 176 187 183 212 248 308 331 330 329 332 330 327 327 337 345 338 334 327 320 334 339 344 344 347 345 331 329 333 343 345 346 353 349 350 353 352
205 206 204 210 201 196 198 192 184 182 179 184 211 248 312 327 328 322 325 327 323 324 333 341 331 333 328 333 329 336 9 346 343 348 336 337 341 344 346 350 355 351 355 353 351
207 209 203 213 208 207 207 196 183 179 177 180 210 283 313 328 328 325 323 322 317 322 332 336 336 338 320 334 328 46 356 1 342 345 337 340 342 348 349 352 357 356 355 352 351
Height
3176 3175 3175 3175 3175 3176 3176 3177 3178 3178 3179 3179 3179 3180 3180 3180 3180 3181 3182 3182 3181 3181 3181 3180 3181 3181 3182 3183 3184 3185 3186 3188 3189 3190 3190 3190 3190 3189 3188 3187 3186 3184 3182 3180 3177
3176 3176 3176 3176 3176 3176 3176 3177 3178 3178 3179 3179 3180 3181 3181 3182 3183 3183 3184 3183 3183 3184 3184 3184 3183 3183 3183 3183 3184 3185 3186 3188 3189 3190 3190 3189 3188 3186 3186 3183 3181 3179 3177 3174 3172
3178 3178 3177 3177 3177 3177 3177 3177 3178 3178 3179 3180 3181 3182 3183 3184 3185 3185 3185 3185 3184 3184 3184 3184 3183 3183 3183 3184 3184 3184 3186 3188 3189 3189 3189 3187 3185 3184 3183 3180 3177 3175 3172 3171 3169
3179 3179 3179 3179 3179 3179 3178 3178 3179 3180 3181 3182 3182 3183 3184 3185 3187 3185 3185 3185 3185 3185 3185 3184 3184 3184 3184 3184 3185 3186 3187 3188 3186 3188 3188 3187 3185 3184 3181 3179 3177 3174 3171 3168 3165
3180 3180 3180 3180 3181 3180 3180 3180 3180 3181 3182 3183 3184 3184 3185 3186 3186 3186 3186 3187 3186 3186 3187 3187 3186 3186 3186 3186 3187 3188 3189 3189 3190 3189 3189 3186 3183 3179 3175 3172 3170 3168 3164 3159 3154
3181 3181 3181 3182 3182 3182 3182 3182 3182 3183 3184 3185 3186 3186 3187 3189 3188 3188 3188 3188 3188 3188 3188 3188 3187 3187 3187 3187 3188 3189 3190 3190 3189 3187 3184 3182 3179 3176 3173 3170 3165 3161 3157 3153 3149
3182 3183 3183 3183 3184 3183 3184 3184 3185 3186 3186 3188 3188 3188 3188 3190 3189 3190 3190 3190 3190 3189 3189 3189 3188 3188 3188 3189 3189 3189 3191 3190 3189 3186 3183 3179 3177 3173 3167 3164 3161 3156 3152 3148 3143
3184 3184 3184 3185 3185 3185 3186 3187 3187 3188 3189 3189 3190 3190 3190 3191 3192 3191 3192 3191 3191 3190 3190 3190 3189 3189 3189 3189 3189 3189 3188 3186 3185 3182 3180 3177 3170 3166 3163 3158 3155 3152 3149 3145 3141
3185 3186 3186 3186 3187 3187 3188 3189 3190 3191 3191 3191 3192 3193 3193 3194 3193 3194 3193 3193 3192 3191 3191 3191 3191 3190 3190 3190 3189 3187 3185 3182 3179 3176 3173 3171 3164 3159 3157 3153 3150 3148 3145 3141 3136
3186 3187 3188 3188 3188 3189 3189 3190 3191 3192 3193 3193 3194 3197 3197 3197 3196 3196 3195 3194 3193 3193 3193 3192 3191 3190 3190 3189 3188 3186 3183 3179 3175 3172 3166 3161 3155 3151 3151 3148 3147 3145 3142 3138 3133
3187 3188 3189 3190 3190 3190 3191 3192 3195 3196 3195 3195 3197 3197 3197 3197 3197 3197 3196 3195 3194 3194 3193 3192 3192 3190 3189 3188 3187 3185 3181 3178 3174 3170 3167 3162 3159 3154 3150 3148 3147 3144 3140 3135 3130
3187 3189 3190 3191 3191 3192 3193 3194 3195 3198 3196 3196 3197 3198 3198 3198 3197 3197 3197 3197 3196 3195 3193 3194 3191 3191 3190 3188 3187 3184 3180 3177 3174 3169 3165 3158 3157 3154 3151 3147 3145 3142 3137 3131 3124
3188 3189 3190 3191 3192 3193 3194 3196 3197 3198 3198 3200 3200 3200 3200 3201 3199 3198 3198 3197 3195 3194 3194 3193 3193 3191 3190 3188 3187 3183 3180 3176 3171 3161 3156 3154 3151 3150 3151 3148 3146 3142 3135 3130 3120
3188 3190 3191 3192 3194 3194 3195 3197 3198 3199 3201 3204 3202 3202 3202 3200 3200 3198 3198 3198 3196 3195 3194 3194 3193 3192 3190 3187 3185 3180 3176 3169 3161 3157 3154 3152 3153 3150 3148 3146 3142 3135 3129 3124 3118
3188 3190 3192 3193 3194 3195 3198 3198 3199 3201 3202 3207 3204 3204 3201 3202 3202 3201 3199 3197 3196 3195 3196 3195 3193 3191 3189 3185 3180 3178 3171 3162 3156 3153 3150 3151 3154 3147 3145 3140 3135 3131 3126 3120 3113
3188 3191 3193 3194 3195 3197 3198 3199 3201 3203 3204 3206 3205 3205 3204 3203 3202 3201 3199 3199 3196 3195 3195 3194 3192 3190 3187 3184 3179 3173 3168 3158 3152 3151 3147 3151 3152 3146 3143 3140 3134 3130 3123 3116 3108
3189 3191 3193 3195 3197 3197 3199 3200 3203 3201 3207 3207 3206 3205 3205 3204 3203 3203 3201 3199 3197 3196 3195 3193 3191 3189 3187 3183 3177 3173 3165 3157 3154 3150 3150 3150 3151 3146 3144 3141 3136 3127 3121 3113 3104
3190 3192 3193 3195 3196 3198 3199 3202 3201 3203 3204 3205 3206 3206 3206 3205 3204 3202 3200 3199 3198 3197 3194 3191 3188 3188 3186 3183 3179 3174 3172 3175 3176 3163 3157 3154 3151 3150 3146 3144 3139 3127 3118 3108 3098
3190 3192 3193 3195 3197 3198 3201 3200 3201 3203 3204 3206 3207 3207 3207 3206 3205 3203 3201 3200 3198 3196 3196 3192 3189 3187 3186 3184 3184 3179 3177 3178 3174 3168 3163 3156 3154 3150 3145 3141 3131 3120 3110 3101 3091
3190 3192 3194 3195 3197 3199 3200 3200 3201 3203 3204 3206 3206 3207 3207 3206 3206 3204 3201 3200 3198 3196 3194 3192 3190 3188 3187 3184 3184 3183 3182 3178 3178 3174 3164 3157 3152 3150 3143 3133 3126 3118 3106 3095 3086
3190 3192 3194 3195 3197 3199 3200 3200 3202 3204 3205 3207 3206 3207 3207 3206 3205 3204 3204 3201 3198 3196 3194 3192 3191 3191 3187 3185 3183 3181 3178 3178 3177 3177 3175 3165 3152 3149 3145 3136 3126 3116 3106 3095 3082
3189 3191 3193 3195 3198 3198 3199 3201 3203 3204 3205 3206 3207 3207 3207 3206 3205 3204 3203 3201 3199 3196 3193 3192 3189 3188 3186 3184 3182 3182 3179 3177 3178 3179 3175 3173 3155 3151 3144 3134 3124 3113 3103 3094 3081
3187 3190 3192 3194 3196 3198 3199 3201 3203 3204 3206 3206 3207 3207 3207 3206 3205 3203 3202 3200 3198 3195 3193 3191 3189 3186 3183 3185 3183 3180 3178 3177 3176 3175 3174 3174 3156 3148 3139 3131 3123 3111 3100 3087 3074
3187 3189 3191 3193 3196 3198 3199 3200 3202 3204 3205 3206 3208 3207 3207 3206 3205 3203 3201 3198 3196 3194 3192 3190 3189 3189 3189 3186 3184 3181 3178 3177 3177 3176 3172 3167 3153 3146 3136 3126 3115 3106 3095 3082 3069
3184 3186 3189 3191 3194 3197 3199 3200 3201 3203 3205 3206 3207 3207 3206 3205 3204 3202 3200 3197 3194 3192 3191 3190 3189 3187 3185 3182 3180 3179 3178 3176 3175 3173 3170 3163 3155 3147 3138 3128 3116 3105 3092 3079 3065
3182 3185 3188 3190 3193 3195 3197 3198 3200 3202 3204 3206 3207 3206 3206 3205 3204 3202 3198 3194 3193 3191 3190 3188 3186 3183 3181 3180 3177 3176 3177 3175 3174 3170 3164 3158 3152 3144 3136 3128 3119 3105 3089 3076 3064
3179 3183 3186 3188 3191 3194 3195 3197 3199 3201 3203 3204 3205 3206 3205 3204 3202 3199 3196 3192 3190 3189 3188 3186 3184 3181 3179 3177 3174 3176 3175 3174 3171 3169 3161 3152 3148 3136 3124 3122 3114 3099 3087 3077 3064